Starlink 33760

operational
NORAD ID: 63764 Int'l Des: 2025-089 Owner: SPXS Country: US Constellation: starlink
LEOCIRCULAR

关于 Starlink 33760

正在加载描述...

实时位置

正在加载3D地球...

即将过境

高度历史

Altitude vs Time

uPlot chart will show altitude changes over time

两行轨道根数

1 63764U 25089P 26036.89537926 .00030743 00000-0 11210-2 0 9990
2 63764 43.0033 224.9120 0002499 282.0682 77.9889 15.27610329 44094
Epoch: Feb 5, 2026 • Age: 15 hours

当前状态

高度 490.4 km
速度 7.62 km/s
星下点 -31.30°S, 115.94°E
发射日期 Apr 29, 2025
运行时间 0.7 years
类型 internet

技术详情

分类 Payload
质量 575.00 kg
干质量 530.00 kg
总质量 575.00 kg
长度 0.30 m
直径 4.10 m
跨度 29.00 m
形状 Box + pan
制造商 SPXS
平台类型 Starlink V2MO
阶段状态 In Orbit
所有者/国家 SPXS/US

大型星座

Loading constellations...